Location: Arapaho Elementary School
(32.9607°N, 96.7625°W)
Time: 03:04:02
(UTC+00:00)

CZ-2C R/B - Pass Details

Date: 08 July 2022
Orbit: 783 x 871 km, 98.2° (Epoch: 14 August)

Event Time Altitude Azimuth Distance (km) Brightness Sun altitude
Rises 10:07:42 0° 140° (SE) 3,417 5.9 -14.4°
Reaches altitude 10° 10:10:18 10° 130° (SE) 2,493 5.3 -14.0°
Maximum altitude 10:15:06 31° 70° (ENE) 1,483 4.8 -13.2°
Drops below altitude 10° 10:19:57 10° 10° (N) 2,522 5.9 -12.4°
Sets 10:22:35 0° 0° (N) 3,463 6.5 -12.0°
